Data supplied by UK-AIR on 5/4/2008
All Data GMT hour ending 
Status: R =Ratified P=Provisional,P*=As supplied
,,Walsall Alumwell,,,,,,,,,,,,,,,,,,,,,,,
Date,time,"Nitric oxide",status,unit,"Nitrogen dioxide",status,unit,"Nitrogen oxides as nitrogen dioxide",status,unit
 
01-01-1992,01:00,,,,,,,,,
01-01-1992,02:00,9,R,ugm-3,15,R,ugm-3,29,R,ugm-3
01-01-1992,03:00,8,R,ugm-3,17,R,ugm-3,29,R,ugm-3
01-01-1992,04:00,8,R,ugm-3,17,R,ugm-3,29,R,ugm-3
01-01-1992,05:00,5,R,ugm-3,11,R,ugm-3,19,R,ugm-3
01-01-1992,06:00,3,R,ugm-3,11,R,ugm-3,15,R,ugm-3
01-01-1992,07:00,5,R,ugm-3,13,R,ugm-3,21,R,ugm-3
01-01-1992,08:00,6,R,ugm-3,15,R,ugm-3,25,R,ugm-3
01-01-1992,09:00,9,R,ugm-3,17,R,ugm-3,31,R,ugm-3
01-01-1992,10:00,9,R,ugm-3,15,R,ugm-3,29,R,ugm-3
01-01-1992,11:00,14,R,ugm-3,17,R,ugm-3,38,R,ugm-3
01-01-1992,12:00,18,R,ugm-3,23,R,ugm-3,50,R,ugm-3
01-01-1992,13:00,24,R,ugm-3,27,R,ugm-3,63,R,ugm-3
01-01-1992,14:00,36,R,ugm-3,36,R,ugm-3,92,R,ugm-3
01-01-1992,15:00,35,R,ugm-3,32,R,ugm-3,86,R,ugm-3
01-01-1992,16:00,38,R,ugm-3,38,R,ugm-3,96,R,ugm-3
01-01-1992,17:00,44,R,ugm-3,48,R,ugm-3,115,R,ugm-3
01-01-1992,18:00,50,R,ugm-3,52,R,ugm-3,128,R,ugm-3
01-01-1992,19:00,43,R,ugm-3,48,R,ugm-3,113,R,ugm-3
01-01-1992,20:00,35,R,ugm-3,40,R,ugm-3,94,R,ugm-3
01-01-1992,21:00,28,R,ugm-3,34,R,ugm-3,76,R,ugm-3
01-01-1992,22:00,19,R,ugm-3,31,R,ugm-3,59,R,ugm-3
01-01-1992,23:00,13,R,ugm-3,19,R,ugm-3,38,R,ugm-3
01-01-1992,24:00,9,R,ugm-3,17,R,ugm-3,31,R,ugm-3
02-01-1992,01:00,8,R,ugm-3,10,R,ugm-3,21,R,ugm-3
02-01-1992,02:00,5,R,ugm-3,8,R,ugm-3,15,R,ugm-3
02-01-1992,03:00,5,R,ugm-3,10,R,ugm-3,17,R,ugm-3
02-01-1992,04:00,6,R,ugm-3,8,R,ugm-3,17,R,ugm-3
02-01-1992,05:00,9,R,ugm-3,11,R,ugm-3,25,R,ugm-3
02-01-1992,06:00,10,R,ugm-3,15,R,ugm-3,31,R,ugm-3
02-01-1992,07:00,21,R,ugm-3,25,R,ugm-3,57,R,ugm-3
02-01-1992,08:00,43,R,ugm-3,42,R,ugm-3,107,R,ugm-3
02-01-1992,09:00,38,R,ugm-3,36,R,ugm-3,94,R,ugm-3
02-01-1992,10:00,39,R,ugm-3,40,R,ugm-3,99,R,ugm-3
02-01-1992,11:00,44,R,ugm-3,40,R,ugm-3,107,R,ugm-3
02-01-1992,12:00,41,R,ugm-3,40,R,ugm-3,103,R,ugm-3
02-01-1992,13:00,45,R,ugm-3,36,R,ugm-3,105,R,ugm-3
02-01-1992,14:00,43,R,ugm-3,36,R,ugm-3,101,R,ugm-3
02-01-1992,15:00,36,R,ugm-3,32,R,ugm-3,88,R,ugm-3
02-01-1992,16:00,41,R,ugm-3,36,R,ugm-3,99,R,ugm-3
02-01-1992,17:00,39,R,ugm-3,34,R,ugm-3,94,R,ugm-3
02-01-1992,18:00,35,R,ugm-3,34,R,ugm-3,88,R,ugm-3
02-01-1992,19:00,31,R,ugm-3,29,R,ugm-3,76,R,ugm-3
02-01-1992,20:00,24,R,ugm-3,23,R,ugm-3,59,R,ugm-3
02-01-1992,21:00,23,R,ugm-3,29,R,ugm-3,63,R,ugm-3
02-01-1992,22:00,20,R,ugm-3,27,R,ugm-3,57,R,ugm-3
02-01-1992,23:00,18,R,ugm-3,25,R,ugm-3,52,R,ugm-3
02-01-1992,24:00,13,R,ugm-3,25,R,ugm-3,44,R,ugm-3
03-01-1992,01:00,10,R,ugm-3,23,R,ugm-3,38,R,ugm-3
03-01-1992,02:00,9,R,ugm-3,17,R,ugm-3,31,R,ugm-3
03-01-1992,03:00,9,R,ugm-3,17,R,ugm-3,31,R,ugm-3
03-01-1992,04:00,10,R,ugm-3,15,R,ugm-3,31,R,ugm-3
03-01-1992,05:00,13,R,ugm-3,17,R,ugm-3,36,R,ugm-3
03-01-1992,06:00,16,R,ugm-3,23,R,ugm-3,48,R,ugm-3
03-01-1992,07:00,29,R,ugm-3,34,R,ugm-3,78,R,ugm-3
03-01-1992,08:00,46,R,ugm-3,44,R,ugm-3,115,R,ugm-3
03-01-1992,09:00,49,R,ugm-3,48,R,ugm-3,122,R,ugm-3
03-01-1992,10:00,44,R,ugm-3,50,R,ugm-3,117,R,ugm-3
03-01-1992,11:00,53,R,ugm-3,50,R,ugm-3,130,R,ugm-3
03-01-1992,12:00,56,R,ugm-3,50,R,ugm-3,136,R,ugm-3
03-01-1992,13:00,44,R,ugm-3,38,R,ugm-3,105,R,ugm-3
03-01-1992,14:00,44,R,ugm-3,38,R,ugm-3,105,R,ugm-3
03-01-1992,15:00,44,R,ugm-3,36,R,ugm-3,103,R,ugm-3
03-01-1992,16:00,43,R,ugm-3,34,R,ugm-3,99,R,ugm-3
03-01-1992,17:00,34,R,ugm-3,31,R,ugm-3,82,R,ugm-3
03-01-1992,18:00,38,R,ugm-3,36,R,ugm-3,94,R,ugm-3
03-01-1992,19:00,34,R,ugm-3,32,R,ugm-3,84,R,ugm-3
03-01-1992,20:00,28,R,ugm-3,25,R,ugm-3,67,R,ugm-3
03-01-1992,21:00,20,R,ugm-3,21,R,ugm-3,52,R,ugm-3
03-01-1992,22:00,16,R,ugm-3,17,R,ugm-3,42,R,ugm-3
03-01-1992,23:00,14,R,ugm-3,25,R,ugm-3,46,R,ugm-3
03-01-1992,24:00,19,R,ugm-3,32,R,ugm-3,61,R,ugm-3
04-01-1992,01:00,18,R,ugm-3,40,R,ugm-3,67,R,ugm-3
04-01-1992,02:00,10,R,ugm-3,23,R,ugm-3,38,R,ugm-3
04-01-1992,03:00,10,R,ugm-3,21,R,ugm-3,36,R,ugm-3
04-01-1992,04:00,6,R,ugm-3,17,R,ugm-3,27,R,ugm-3
04-01-1992,05:00,8,R,ugm-3,19,R,ugm-3,31,R,ugm-3
04-01-1992,06:00,11,R,ugm-3,27,R,ugm-3,44,R,ugm-3
04-01-1992,07:00,20,R,ugm-3,38,R,ugm-3,69,R,ugm-3
04-01-1992,08:00,35,R,ugm-3,46,R,ugm-3,99,R,ugm-3
04-01-1992,09:00,55,R,ugm-3,55,R,ugm-3,139,R,ugm-3
04-01-1992,10:00,64,R,ugm-3,55,R,ugm-3,153,R,ugm-3
04-01-1992,11:00,81,R,ugm-3,53,R,ugm-3,178,R,ugm-3
04-01-1992,12:00,76,R,ugm-3,52,R,ugm-3,168,R,ugm-3
04-01-1992,13:00,66,R,ugm-3,42,R,ugm-3,143,R,ugm-3
04-01-1992,14:00,71,R,ugm-3,46,R,ugm-3,155,R,ugm-3
04-01-1992,15:00,71,R,ugm-3,50,R,ugm-3,159,R,ugm-3
04-01-1992,16:00,76,R,ugm-3,53,R,ugm-3,170,R,ugm-3
04-01-1992,17:00,103,R,ugm-3,59,R,ugm-3,216,R,ugm-3
04-01-1992,18:00,155,R,ugm-3,59,R,ugm-3,296,R,ugm-3
04-01-1992,19:00,121,R,ugm-3,55,R,ugm-3,241,R,ugm-3
04-01-1992,20:00,109,R,ugm-3,53,R,ugm-3,220,R,ugm-3
04-01-1992,21:00,85,R,ugm-3,50,R,ugm-3,180,R,ugm-3
04-01-1992,22:00,40,R,ugm-3,46,R,ugm-3,107,R,ugm-3
04-01-1992,23:00,25,R,ugm-3,48,R,ugm-3,86,R,ugm-3
04-01-1992,24:00,23,R,ugm-3,48,R,ugm-3,82,R,ugm-3
05-01-1992,01:00,30,R,ugm-3,42,R,ugm-3,88,R,ugm-3
05-01-1992,02:00,18,R,ugm-3,42,R,ugm-3,69,R,ugm-3
05-01-1992,03:00,13,R,ugm-3,38,R,ugm-3,57,R,ugm-3
05-01-1992,04:00,8,R,ugm-3,31,R,ugm-3,42,R,ugm-3
05-01-1992,05:00,13,R,ugm-3,23,R,ugm-3,42,R,ugm-3
05-01-1992,06:00,6,R,ugm-3,10,R,ugm-3,19,R,ugm-3
05-01-1992,07:00,6,R,ugm-3,19,R,ugm-3,29,R,ugm-3
05-01-1992,08:00,10,R,ugm-3,21,R,ugm-3,36,R,ugm-3
05-01-1992,09:00,13,R,ugm-3,23,R,ugm-3,42,R,ugm-3
05-01-1992,10:00,20,R,ugm-3,31,R,ugm-3,61,R,ugm-3
05-01-1992,11:00,26,R,ugm-3,31,R,ugm-3,71,R,ugm-3
05-01-1992,12:00,29,R,ugm-3,27,R,ugm-3,71,R,ugm-3
05-01-1992,13:00,39,R,ugm-3,34,R,ugm-3,94,R,ugm-3
05-01-1992,14:00,39,R,ugm-3,32,R,ugm-3,92,R,ugm-3
05-01-1992,15:00,36,R,ugm-3,32,R,ugm-3,88,R,ugm-3
05-01-1992,16:00,41,R,ugm-3,36,R,ugm-3,99,R,ugm-3
05-01-1992,17:00,34,R,ugm-3,27,R,ugm-3,78,R,ugm-3
05-01-1992,18:00,34,R,ugm-3,31,R,ugm-3,82,R,ugm-3
05-01-1992,19:00,30,R,ugm-3,27,R,ugm-3,73,R,ugm-3
05-01-1992,20:00,35,R,ugm-3,29,R,ugm-3,82,R,ugm-3
05-01-1992,21:00,29,R,ugm-3,27,R,ugm-3,71,R,ugm-3
05-01-1992,22:00,29,R,ugm-3,27,R,ugm-3,71,R,ugm-3
05-01-1992,23:00,18,R,ugm-3,19,R,ugm-3,46,R,ugm-3
05-01-1992,24:00,15,R,ugm-3,17,R,ugm-3,40,R,ugm-3
06-01-1992,01:00,14,R,ugm-3,15,R,ugm-3,36,R,ugm-3
06-01-1992,02:00,13,R,ugm-3,11,R,ugm-3,31,R,ugm-3
06-01-1992,03:00,14,R,ugm-3,8,R,ugm-3,29,R,ugm-3
06-01-1992,04:00,15,R,ugm-3,13,R,ugm-3,36,R,ugm-3
06-01-1992,05:00,23,R,ugm-3,23,R,ugm-3,57,R,ugm-3
06-01-1992,06:00,38,R,ugm-3,36,R,ugm-3,94,R,ugm-3
06-01-1992,07:00,84,R,ugm-3,50,R,ugm-3,178,R,ugm-3
06-01-1992,08:00,90,R,ugm-3,48,R,ugm-3,185,R,ugm-3
06-01-1992,09:00,98,R,ugm-3,59,R,ugm-3,208,R,ugm-3
06-01-1992,10:00,111,R,ugm-3,55,R,ugm-3,225,R,ugm-3
06-01-1992,11:00,84,R,ugm-3,46,R,ugm-3,174,R,ugm-3
06-01-1992,12:00,83,R,ugm-3,48,R,ugm-3,174,R,ugm-3
06-01-1992,13:00,76,R,ugm-3,42,R,ugm-3,159,R,ugm-3
06-01-1992,14:00,75,R,ugm-3,44,R,ugm-3,159,R,ugm-3
06-01-1992,15:00,91,R,ugm-3,48,R,ugm-3,187,R,ugm-3
06-01-1992,16:00,110,R,ugm-3,52,R,ugm-3,220,R,ugm-3
06-01-1992,17:00,109,R,ugm-3,55,R,ugm-3,222,R,ugm-3
06-01-1992,18:00,174,R,ugm-3,59,R,ugm-3,325,R,ugm-3
06-01-1992,19:00,118,R,ugm-3,55,R,ugm-3,235,R,ugm-3
06-01-1992,20:00,69,R,ugm-3,44,R,ugm-3,149,R,ugm-3
06-01-1992,21:00,55,R,ugm-3,46,R,ugm-3,130,R,ugm-3
06-01-1992,22:00,34,R,ugm-3,36,R,ugm-3,88,R,ugm-3
06-01-1992,23:00,21,R,ugm-3,29,R,ugm-3,61,R,ugm-3
06-01-1992,24:00,23,R,ugm-3,23,R,ugm-3,57,R,ugm-3
07-01-1992,01:00,8,R,ugm-3,38,R,ugm-3,50,R,ugm-3
07-01-1992,02:00,11,R,ugm-3,38,R,ugm-3,55,R,ugm-3
07-01-1992,03:00,11,R,ugm-3,38,R,ugm-3,55,R,ugm-3
07-01-1992,04:00,14,R,ugm-3,38,R,ugm-3,59,R,ugm-3
07-01-1992,05:00,10,R,ugm-3,34,R,ugm-3,50,R,ugm-3
07-01-1992,06:00,19,R,ugm-3,42,R,ugm-3,71,R,ugm-3
07-01-1992,07:00,35,R,ugm-3,53,R,ugm-3,107,R,ugm-3
07-01-1992,08:00,36,R,ugm-3,57,R,ugm-3,113,R,ugm-3
07-01-1992,09:00,69,R,ugm-3,63,R,ugm-3,168,R,ugm-3
07-01-1992,10:00,63,R,ugm-3,61,R,ugm-3,157,R,ugm-3
07-01-1992,11:00,70,R,ugm-3,61,R,ugm-3,168,R,ugm-3
07-01-1992,12:00,75,R,ugm-3,59,R,ugm-3,174,R,ugm-3
07-01-1992,13:00,66,R,ugm-3,63,R,ugm-3,164,R,ugm-3
07-01-1992,14:00,76,R,ugm-3,63,R,ugm-3,180,R,ugm-3
07-01-1992,15:00,71,R,ugm-3,63,R,ugm-3,172,R,ugm-3
07-01-1992,16:00,50,R,ugm-3,63,R,ugm-3,139,R,ugm-3
07-01-1992,17:00,48,R,ugm-3,65,R,ugm-3,138,R,ugm-3
07-01-1992,18:00,43,R,ugm-3,63,R,ugm-3,128,R,ugm-3
07-01-1992,19:00,28,R,ugm-3,59,R,ugm-3,101,R,ugm-3
07-01-1992,20:00,30,R,ugm-3,55,R,ugm-3,101,R,ugm-3
07-01-1992,21:00,29,R,ugm-3,52,R,ugm-3,96,R,ugm-3
07-01-1992,22:00,14,R,ugm-3,42,R,ugm-3,63,R,ugm-3
07-01-1992,23:00,9,R,ugm-3,38,R,ugm-3,52,R,ugm-3
07-01-1992,24:00,5,R,ugm-3,32,R,ugm-3,40,R,ugm-3
08-01-1992,01:00,10,R,ugm-3,11,R,ugm-3,27,R,ugm-3
08-01-1992,02:00,10,R,ugm-3,10,R,ugm-3,25,R,ugm-3
08-01-1992,03:00,9,R,ugm-3,10,R,ugm-3,23,R,ugm-3
08-01-1992,04:00,9,R,ugm-3,8,R,ugm-3,21,R,ugm-3
08-01-1992,05:00,13,R,ugm-3,10,R,ugm-3,29,R,ugm-3
08-01-1992,06:00,20,R,ugm-3,17,R,ugm-3,48,R,ugm-3
08-01-1992,07:00,45,R,ugm-3,32,R,ugm-3,101,R,ugm-3
08-01-1992,08:00,75,R,ugm-3,44,R,ugm-3,159,R,ugm-3
08-01-1992,09:00,90,R,ugm-3,55,R,ugm-3,193,R,ugm-3
08-01-1992,10:00,65,R,ugm-3,50,R,ugm-3,149,R,ugm-3
08-01-1992,11:00,73,R,ugm-3,46,R,ugm-3,157,R,ugm-3
08-01-1992,12:00,69,R,ugm-3,46,R,ugm-3,151,R,ugm-3
08-01-1992,13:00,59,R,ugm-3,46,R,ugm-3,136,R,ugm-3
08-01-1992,14:00,48,R,ugm-3,46,R,ugm-3,118,R,ugm-3
08-01-1992,15:00,81,R,ugm-3,52,R,ugm-3,176,R,ugm-3
08-01-1992,16:00,138,R,ugm-3,52,R,ugm-3,262,R,ugm-3
08-01-1992,17:00,119,R,ugm-3,55,R,ugm-3,237,R,ugm-3
08-01-1992,18:00,88,R,ugm-3,55,R,ugm-3,189,R,ugm-3
08-01-1992,19:00,38,R,ugm-3,53,R,ugm-3,111,R,ugm-3
08-01-1992,20:00,16,R,ugm-3,38,R,ugm-3,63,R,ugm-3
08-01-1992,21:00,18,R,ugm-3,46,R,ugm-3,73,R,ugm-3
08-01-1992,22:00,11,R,ugm-3,34,R,ugm-3,52,R,ugm-3
08-01-1992,23:00,10,R,ugm-3,19,R,ugm-3,34,R,ugm-3
08-01-1992,24:00,10,R,ugm-3,34,R,ugm-3,50,R,ugm-3
09-01-1992,01:00,6,R,ugm-3,57,R,ugm-3,67,R,ugm-3
09-01-1992,02:00,3,R,ugm-3,23,R,ugm-3,27,R,ugm-3
09-01-1992,03:00,1,R,ugm-3,11,R,ugm-3,13,R,ugm-3
09-01-1992,04:00,1,R,ugm-3,15,R,ugm-3,17,R,ugm-3
09-01-1992,05:00,5,R,ugm-3,42,R,ugm-3,50,R,ugm-3
09-01-1992,06:00,3,R,ugm-3,19,R,ugm-3,23,R,ugm-3
09-01-1992,07:00,3,R,ugm-3,19,R,ugm-3,23,R,ugm-3
09-01-1992,08:00,5,R,ugm-3,27,R,ugm-3,34,R,ugm-3
09-01-1992,09:00,6,R,ugm-3,34,R,ugm-3,44,R,ugm-3
09-01-1992,10:00,9,R,ugm-3,32,R,ugm-3,46,R,ugm-3
09-01-1992,11:00,10,R,ugm-3,55,R,ugm-3,71,R,ugm-3
09-01-1992,12:00,14,R,ugm-3,50,R,ugm-3,71,R,ugm-3
09-01-1992,13:00,13,R,ugm-3,44,R,ugm-3,63,R,ugm-3
09-01-1992,14:00,9,R,ugm-3,38,R,ugm-3,52,R,ugm-3
09-01-1992,15:00,18,R,ugm-3,55,R,ugm-3,82,R,ugm-3
09-01-1992,16:00,23,R,ugm-3,71,R,ugm-3,105,R,ugm-3
09-01-1992,17:00,50,R,ugm-3,69,R,ugm-3,145,R,ugm-3
09-01-1992,18:00,11,R,ugm-3,52,R,ugm-3,69,R,ugm-3
09-01-1992,19:00,19,R,ugm-3,63,R,ugm-3,92,R,ugm-3
09-01-1992,20:00,23,R,ugm-3,67,R,ugm-3,101,R,ugm-3
09-01-1992,21:00,14,R,ugm-3,61,R,ugm-3,82,R,ugm-3
09-01-1992,22:00,24,R,ugm-3,55,R,ugm-3,92,R,ugm-3
09-01-1992,23:00,38,R,ugm-3,55,R,ugm-3,113,R,ugm-3
09-01-1992,24:00,36,R,ugm-3,53,R,ugm-3,109,R,ugm-3
10-01-1992,01:00,19,R,ugm-3,52,R,ugm-3,80,R,ugm-3
10-01-1992,02:00,79,R,ugm-3,63,R,ugm-3,183,R,ugm-3
10-01-1992,03:00,61,R,ugm-3,61,R,ugm-3,155,R,ugm-3
10-01-1992,04:00,70,R,ugm-3,59,R,ugm-3,166,R,ugm-3
10-01-1992,05:00,89,R,ugm-3,61,R,ugm-3,197,R,ugm-3
10-01-1992,06:00,168,R,ugm-3,63,R,ugm-3,319,R,ugm-3
10-01-1992,07:00,241,R,ugm-3,65,R,ugm-3,434,R,ugm-3
10-01-1992,08:00,233,R,ugm-3,67,R,ugm-3,422,R,ugm-3
10-01-1992,09:00,461,R,ugm-3,71,R,ugm-3,775,R,ugm-3
10-01-1992,10:00,318,R,ugm-3,69,R,ugm-3,554,R,ugm-3
10-01-1992,11:00,403,R,ugm-3,67,R,ugm-3,682,R,ugm-3
10-01-1992,12:00,348,R,ugm-3,69,R,ugm-3,600,R,ugm-3
10-01-1992,13:00,151,R,ugm-3,69,R,ugm-3,300,R,ugm-3
10-01-1992,14:00,30,R,ugm-3,46,R,ugm-3,92,R,ugm-3
10-01-1992,15:00,20,R,ugm-3,52,R,ugm-3,82,R,ugm-3
10-01-1992,16:00,51,R,ugm-3,63,R,ugm-3,141,R,ugm-3
10-01-1992,17:00,265,R,ugm-3,61,R,ugm-3,466,R,ugm-3
10-01-1992,18:00,323,R,ugm-3,67,R,ugm-3,560,R,ugm-3
10-01-1992,19:00,316,R,ugm-3,71,R,ugm-3,554,R,ugm-3
10-01-1992,20:00,226,R,ugm-3,73,R,ugm-3,418,R,ugm-3
10-01-1992,21:00,299,R,ugm-3,67,R,ugm-3,523,R,ugm-3
10-01-1992,22:00,641,R,ugm-3,80,R,ugm-3,1060,R,ugm-3
10-01-1992,23:00,668,R,ugm-3,99,R,ugm-3,1119,R,ugm-3
10-01-1992,24:00,614,R,ugm-3,96,R,ugm-3,1033,R,ugm-3
11-01-1992,01:00,553,R,ugm-3,86,R,ugm-3,930,R,ugm-3
11-01-1992,02:00,570,R,ugm-3,84,R,ugm-3,955,R,ugm-3
11-01-1992,03:00,441,R,ugm-3,74,R,ugm-3,749,R,ugm-3
11-01-1992,04:00,509,R,ugm-3,76,R,ugm-3,854,R,ugm-3
11-01-1992,05:00,313,R,ugm-3,53,R,ugm-3,531,R,ugm-3
11-01-1992,06:00,259,R,ugm-3,52,R,ugm-3,447,R,ugm-3
11-01-1992,07:00,274,R,ugm-3,50,R,ugm-3,468,R,ugm-3
11-01-1992,08:00,249,R,ugm-3,50,R,ugm-3,430,R,ugm-3
11-01-1992,09:00,335,R,ugm-3,52,R,ugm-3,563,R,ugm-3
11-01-1992,10:00,408,R,ugm-3,59,R,ugm-3,682,R,ugm-3
11-01-1992,11:00,333,R,ugm-3,65,R,ugm-3,573,R,ugm-3
11-01-1992,12:00,289,R,ugm-3,74,R,ugm-3,516,R,ugm-3
11-01-1992,13:00,210,R,ugm-3,67,R,ugm-3,388,R,ugm-3
11-01-1992,14:00,168,R,ugm-3,65,R,ugm-3,321,R,ugm-3
11-01-1992,15:00,199,R,ugm-3,59,R,ugm-3,363,R,ugm-3
11-01-1992,16:00,231,R,ugm-3,59,R,ugm-3,413,R,ugm-3
11-01-1992,17:00,296,R,ugm-3,59,R,ugm-3,512,R,ugm-3
11-01-1992,18:00,350,R,ugm-3,57,R,ugm-3,592,R,ugm-3
11-01-1992,19:00,265,R,ugm-3,61,R,ugm-3,466,R,ugm-3
11-01-1992,20:00,179,R,ugm-3,55,R,ugm-3,329,R,ugm-3
11-01-1992,21:00,156,R,ugm-3,55,R,ugm-3,294,R,ugm-3
11-01-1992,22:00,148,R,ugm-3,55,R,ugm-3,281,R,ugm-3
11-01-1992,23:00,83,R,ugm-3,52,R,ugm-3,178,R,ugm-3
11-01-1992,24:00,59,R,ugm-3,48,R,ugm-3,138,R,ugm-3
12-01-1992,01:00,64,R,ugm-3,38,R,ugm-3,136,R,ugm-3
12-01-1992,02:00,95,R,ugm-3,32,R,ugm-3,178,R,ugm-3
12-01-1992,03:00,80,R,ugm-3,32,R,ugm-3,155,R,ugm-3
12-01-1992,04:00,95,R,ugm-3,32,R,ugm-3,178,R,ugm-3
12-01-1992,05:00,114,R,ugm-3,29,R,ugm-3,202,R,ugm-3
12-01-1992,06:00,59,R,ugm-3,44,R,ugm-3,134,R,ugm-3
12-01-1992,07:00,46,R,ugm-3,46,R,ugm-3,117,R,ugm-3
12-01-1992,08:00,23,R,ugm-3,48,R,ugm-3,82,R,ugm-3
12-01-1992,09:00,24,R,ugm-3,48,R,ugm-3,84,R,ugm-3
12-01-1992,10:00,38,R,ugm-3,42,R,ugm-3,99,R,ugm-3
12-01-1992,11:00,46,R,ugm-3,40,R,ugm-3,111,R,ugm-3
12-01-1992,12:00,86,R,ugm-3,46,R,ugm-3,178,R,ugm-3
12-01-1992,13:00,131,R,ugm-3,50,R,ugm-3,250,R,ugm-3
12-01-1992,14:00,149,R,ugm-3,53,R,ugm-3,281,R,ugm-3
12-01-1992,15:00,160,R,ugm-3,53,R,ugm-3,298,R,ugm-3
12-01-1992,16:00,170,R,ugm-3,46,R,ugm-3,306,R,ugm-3
12-01-1992,17:00,160,R,ugm-3,38,R,ugm-3,283,R,ugm-3
12-01-1992,18:00,231,R,ugm-3,36,R,ugm-3,390,R,ugm-3
12-01-1992,19:00,249,R,ugm-3,32,R,ugm-3,413,R,ugm-3
12-01-1992,20:00,199,R,ugm-3,32,R,ugm-3,336,R,ugm-3
12-01-1992,21:00,315,R,ugm-3,32,R,ugm-3,514,R,ugm-3
12-01-1992,22:00,373,R,ugm-3,36,R,ugm-3,605,R,ugm-3
12-01-1992,23:00,321,R,ugm-3,32,R,ugm-3,523,R,ugm-3
12-01-1992,24:00,223,R,ugm-3,31,R,ugm-3,371,R,ugm-3
13-01-1992,01:00,213,R,ugm-3,32,R,ugm-3,357,R,ugm-3
13-01-1992,02:00,135,R,ugm-3,31,R,ugm-3,237,R,ugm-3
13-01-1992,03:00,100,R,ugm-3,34,R,ugm-3,187,R,ugm-3
13-01-1992,04:00,104,R,ugm-3,31,R,ugm-3,189,R,ugm-3
13-01-1992,05:00,159,R,ugm-3,31,R,ugm-3,273,R,ugm-3
13-01-1992,06:00,243,R,ugm-3,34,R,ugm-3,405,R,ugm-3
13-01-1992,07:00,378,R,ugm-3,36,R,ugm-3,613,R,ugm-3
13-01-1992,08:00,306,R,ugm-3,38,R,ugm-3,506,R,ugm-3
13-01-1992,09:00,314,R,ugm-3,38,R,ugm-3,518,R,ugm-3
13-01-1992,10:00,366,R,ugm-3,48,R,ugm-3,607,R,ugm-3
13-01-1992,11:00,509,R,ugm-3,53,R,ugm-3,831,R,ugm-3
13-01-1992,12:00,305,R,ugm-3,52,R,ugm-3,518,R,ugm-3
13-01-1992,13:00,178,R,ugm-3,53,R,ugm-3,325,R,ugm-3
13-01-1992,14:00,134,R,ugm-3,57,R,ugm-3,262,R,ugm-3
13-01-1992,15:00,255,R,ugm-3,53,R,ugm-3,443,R,ugm-3
13-01-1992,16:00,236,R,ugm-3,53,R,ugm-3,414,R,ugm-3
13-01-1992,17:00,263,R,ugm-3,48,R,ugm-3,449,R,ugm-3
13-01-1992,18:00,244,R,ugm-3,44,R,ugm-3,416,R,ugm-3
13-01-1992,19:00,255,R,ugm-3,46,R,ugm-3,435,R,ugm-3
13-01-1992,20:00,183,R,ugm-3,44,R,ugm-3,323,R,ugm-3
13-01-1992,21:00,218,R,ugm-3,48,R,ugm-3,380,R,ugm-3
13-01-1992,22:00,209,R,ugm-3,44,R,ugm-3,363,R,ugm-3
13-01-1992,23:00,99,R,ugm-3,44,R,ugm-3,195,R,ugm-3
13-01-1992,24:00,54,R,ugm-3,40,R,ugm-3,122,R,ugm-3
14-01-1992,01:00,28,R,ugm-3,50,R,ugm-3,92,R,ugm-3
14-01-1992,02:00,18,R,ugm-3,44,R,ugm-3,71,R,ugm-3
14-01-1992,03:00,15,R,ugm-3,40,R,ugm-3,63,R,ugm-3
14-01-1992,04:00,11,R,ugm-3,40,R,ugm-3,57,R,ugm-3
14-01-1992,05:00,15,R,ugm-3,42,R,ugm-3,65,R,ugm-3
14-01-1992,06:00,23,R,ugm-3,46,R,ugm-3,80,R,ugm-3
14-01-1992,07:00,48,R,ugm-3,52,R,ugm-3,124,R,ugm-3
14-01-1992,08:00,81,R,ugm-3,57,R,ugm-3,181,R,ugm-3
14-01-1992,09:00,126,R,ugm-3,63,R,ugm-3,256,R,ugm-3
14-01-1992,10:00,136,R,ugm-3,69,R,ugm-3,277,R,ugm-3
14-01-1992,11:00,96,R,ugm-3,71,R,ugm-3,218,R,ugm-3
14-01-1992,12:00,118,R,ugm-3,73,R,ugm-3,252,R,ugm-3
14-01-1992,13:00,93,R,ugm-3,71,R,ugm-3,212,R,ugm-3
14-01-1992,14:00,108,R,ugm-3,71,R,ugm-3,235,R,ugm-3
14-01-1992,15:00,111,R,ugm-3,71,R,ugm-3,241,R,ugm-3
14-01-1992,16:00,113,R,ugm-3,71,R,ugm-3,243,R,ugm-3
14-01-1992,17:00,83,R,ugm-3,71,R,ugm-3,197,R,ugm-3
14-01-1992,18:00,146,R,ugm-3,71,R,ugm-3,294,R,ugm-3
14-01-1992,19:00,183,R,ugm-3,73,R,ugm-3,351,R,ugm-3
14-01-1992,20:00,171,R,ugm-3,74,R,ugm-3,336,R,ugm-3
14-01-1992,21:00,90,R,ugm-3,73,R,ugm-3,210,R,ugm-3
14-01-1992,22:00,63,R,ugm-3,73,R,ugm-3,168,R,ugm-3
14-01-1992,23:00,53,R,ugm-3,71,R,ugm-3,151,R,ugm-3
14-01-1992,24:00,43,R,ugm-3,71,R,ugm-3,136,R,ugm-3
15-01-1992,01:00,45,R,ugm-3,55,R,ugm-3,124,R,ugm-3
15-01-1992,02:00,23,R,ugm-3,55,R,ugm-3,90,R,ugm-3
15-01-1992,03:00,40,R,ugm-3,53,R,ugm-3,115,R,ugm-3
15-01-1992,04:00,73,R,ugm-3,52,R,ugm-3,162,R,ugm-3
15-01-1992,05:00,48,R,ugm-3,53,R,ugm-3,126,R,ugm-3
15-01-1992,06:00,20,R,ugm-3,44,R,ugm-3,74,R,ugm-3
15-01-1992,07:00,10,R,ugm-3,34,R,ugm-3,50,R,ugm-3
15-01-1992,08:00,29,R,ugm-3,44,R,ugm-3,88,R,ugm-3
15-01-1992,09:00,88,R,ugm-3,52,R,ugm-3,185,R,ugm-3
15-01-1992,10:00,108,R,ugm-3,48,R,ugm-3,212,R,ugm-3
15-01-1992,11:00,111,R,ugm-3,50,R,ugm-3,220,R,ugm-3
15-01-1992,12:00,129,R,ugm-3,46,R,ugm-3,243,R,ugm-3
15-01-1992,13:00,113,R,ugm-3,48,R,ugm-3,220,R,ugm-3
15-01-1992,14:00,123,R,ugm-3,46,R,ugm-3,233,R,ugm-3
15-01-1992,15:00,89,R,ugm-3,40,R,ugm-3,176,R,ugm-3
15-01-1992,16:00,119,R,ugm-3,44,R,ugm-3,225,R,ugm-3
15-01-1992,17:00,149,R,ugm-3,46,R,ugm-3,273,R,ugm-3
15-01-1992,18:00,140,R,ugm-3,42,R,ugm-3,256,R,ugm-3
15-01-1992,19:00,124,R,ugm-3,38,R,ugm-3,227,R,ugm-3
15-01-1992,20:00,78,R,ugm-3,38,R,ugm-3,157,R,ugm-3
15-01-1992,21:00,59,R,ugm-3,44,R,ugm-3,134,R,ugm-3
15-01-1992,22:00,54,R,ugm-3,53,R,ugm-3,136,R,ugm-3
15-01-1992,23:00,48,R,ugm-3,50,R,ugm-3,122,R,ugm-3
15-01-1992,24:00,36,R,ugm-3,44,R,ugm-3,99,R,ugm-3
16-01-1992,01:00,34,R,ugm-3,46,R,ugm-3,97,R,ugm-3
16-01-1992,02:00,24,R,ugm-3,36,R,ugm-3,73,R,ugm-3
16-01-1992,03:00,26,R,ugm-3,36,R,ugm-3,76,R,ugm-3
16-01-1992,04:00,38,R,ugm-3,40,R,ugm-3,97,R,ugm-3
16-01-1992,05:00,55,R,ugm-3,46,R,ugm-3,130,R,ugm-3
16-01-1992,06:00,66,R,ugm-3,46,R,ugm-3,147,R,ugm-3
16-01-1992,07:00,108,R,ugm-3,44,R,ugm-3,208,R,ugm-3
16-01-1992,08:00,104,R,ugm-3,46,R,ugm-3,204,R,ugm-3
16-01-1992,09:00,121,R,ugm-3,46,R,ugm-3,231,R,ugm-3
16-01-1992,10:00,123,R,ugm-3,48,R,ugm-3,235,R,ugm-3
16-01-1992,11:00,108,R,ugm-3,46,R,ugm-3,210,R,ugm-3
16-01-1992,12:00,74,R,ugm-3,44,R,ugm-3,157,R,ugm-3
16-01-1992,13:00,80,R,ugm-3,42,R,ugm-3,164,R,ugm-3
16-01-1992,14:00,85,R,ugm-3,44,R,ugm-3,174,R,ugm-3
16-01-1992,15:00,98,R,ugm-3,44,R,ugm-3,193,R,ugm-3
16-01-1992,16:00,121,R,ugm-3,50,R,ugm-3,235,R,ugm-3
16-01-1992,17:00,165,R,ugm-3,48,R,ugm-3,300,R,ugm-3
16-01-1992,18:00,175,R,ugm-3,46,R,ugm-3,313,R,ugm-3
16-01-1992,19:00,214,R,ugm-3,50,R,ugm-3,376,R,ugm-3
16-01-1992,20:00,168,R,ugm-3,46,R,ugm-3,302,R,ugm-3
16-01-1992,21:00,154,R,ugm-3,44,R,ugm-3,279,R,ugm-3
16-01-1992,22:00,148,R,ugm-3,44,R,ugm-3,269,R,ugm-3
16-01-1992,23:00,131,R,ugm-3,46,R,ugm-3,246,R,ugm-3
16-01-1992,24:00,54,R,ugm-3,42,R,ugm-3,124,R,ugm-3
17-01-1992,01:00,25,R,ugm-3,46,R,ugm-3,84,R,ugm-3
17-01-1992,02:00,20,R,ugm-3,46,R,ugm-3,76,R,ugm-3
17-01-1992,03:00,26,R,ugm-3,53,R,ugm-3,94,R,ugm-3
17-01-1992,04:00,16,R,ugm-3,44,R,ugm-3,69,R,ugm-3
17-01-1992,05:00,26,R,ugm-3,42,R,ugm-3,82,R,ugm-3
17-01-1992,06:00,53,R,ugm-3,44,R,ugm-3,124,R,ugm-3
17-01-1992,07:00,80,R,ugm-3,50,R,ugm-3,172,R,ugm-3
17-01-1992,08:00,113,R,ugm-3,52,R,ugm-3,223,R,ugm-3
17-01-1992,09:00,91,R,ugm-3,48,R,ugm-3,187,R,ugm-3
17-01-1992,10:00,116,R,ugm-3,48,R,ugm-3,225,R,ugm-3
17-01-1992,11:00,73,R,ugm-3,46,R,ugm-3,157,R,ugm-3
17-01-1992,12:00,43,R,ugm-3,46,R,ugm-3,111,R,ugm-3
17-01-1992,13:00,98,R,ugm-3,57,R,ugm-3,206,R,ugm-3
17-01-1992,14:00,100,R,ugm-3,61,R,ugm-3,214,R,ugm-3
17-01-1992,15:00,78,R,ugm-3,61,R,ugm-3,180,R,ugm-3
17-01-1992,16:00,161,R,ugm-3,65,R,ugm-3,311,R,ugm-3
17-01-1992,17:00,160,R,ugm-3,63,R,ugm-3,308,R,ugm-3
17-01-1992,18:00,186,R,ugm-3,61,R,ugm-3,346,R,ugm-3
17-01-1992,19:00,233,R,ugm-3,61,R,ugm-3,416,R,ugm-3
17-01-1992,20:00,225,R,ugm-3,55,R,ugm-3,399,R,ugm-3
17-01-1992,21:00,184,R,ugm-3,52,R,ugm-3,332,R,ugm-3
17-01-1992,22:00,226,R,ugm-3,50,R,ugm-3,395,R,ugm-3
17-01-1992,23:00,169,R,ugm-3,53,R,ugm-3,311,R,ugm-3
17-01-1992,24:00,116,R,ugm-3,46,R,ugm-3,223,R,ugm-3
18-01-1992,01:00,95,R,ugm-3,46,R,ugm-3,191,R,ugm-3
18-01-1992,02:00,51,R,ugm-3,38,R,ugm-3,117,R,ugm-3
18-01-1992,03:00,43,R,ugm-3,40,R,ugm-3,105,R,ugm-3
18-01-1992,04:00,31,R,ugm-3,38,R,ugm-3,86,R,ugm-3
18-01-1992,05:00,24,R,ugm-3,38,R,ugm-3,74,R,ugm-3
18-01-1992,06:00,34,R,ugm-3,44,R,ugm-3,96,R,ugm-3
18-01-1992,07:00,61,R,ugm-3,46,R,ugm-3,139,R,ugm-3
18-01-1992,08:00,105,R,ugm-3,48,R,ugm-3,208,R,ugm-3
18-01-1992,09:00,145,R,ugm-3,50,R,ugm-3,271,R,ugm-3
18-01-1992,10:00,189,R,ugm-3,55,R,ugm-3,344,R,ugm-3
18-01-1992,11:00,134,R,ugm-3,57,R,ugm-3,262,R,ugm-3
18-01-1992,12:00,109,R,ugm-3,55,R,ugm-3,222,R,ugm-3
18-01-1992,13:00,120,R,ugm-3,61,R,ugm-3,244,R,ugm-3
18-01-1992,14:00,113,R,ugm-3,59,R,ugm-3,231,R,ugm-3
18-01-1992,15:00,79,R,ugm-3,59,R,ugm-3,180,R,ugm-3
18-01-1992,16:00,98,R,ugm-3,59,R,ugm-3,208,R,ugm-3
18-01-1992,17:00,119,R,ugm-3,61,R,ugm-3,243,R,ugm-3
18-01-1992,18:00,96,R,ugm-3,57,R,ugm-3,204,R,ugm-3
18-01-1992,19:00,105,R,ugm-3,57,R,ugm-3,218,R,ugm-3
18-01-1992,20:00,75,R,ugm-3,55,R,ugm-3,170,R,ugm-3
18-01-1992,21:00,69,R,ugm-3,57,R,ugm-3,162,R,ugm-3
18-01-1992,22:00,48,R,ugm-3,50,R,ugm-3,122,R,ugm-3
18-01-1992,23:00,23,R,ugm-3,42,R,ugm-3,76,R,ugm-3
18-01-1992,24:00,21,R,ugm-3,40,R,ugm-3,73,R,ugm-3
19-01-1992,01:00,23,R,ugm-3,42,R,ugm-3,76,R,ugm-3
19-01-1992,02:00,15,R,ugm-3,34,R,ugm-3,57,R,ugm-3
19-01-1992,03:00,6,R,ugm-3,27,R,ugm-3,36,R,ugm-3
19-01-1992,04:00,3,R,ugm-3,17,R,ugm-3,21,R,ugm-3
19-01-1992,05:00,4,R,ugm-3,19,R,ugm-3,25,R,ugm-3
19-01-1992,06:00,3,R,ugm-3,17,R,ugm-3,21,R,ugm-3
19-01-1992,07:00,4,R,ugm-3,23,R,ugm-3,29,R,ugm-3
19-01-1992,08:00,10,R,ugm-3,29,R,ugm-3,44,R,ugm-3
19-01-1992,09:00,15,R,ugm-3,32,R,ugm-3,55,R,ugm-3
19-01-1992,10:00,18,R,ugm-3,31,R,ugm-3,57,R,ugm-3
19-01-1992,11:00,26,R,ugm-3,36,R,ugm-3,76,R,ugm-3
19-01-1992,12:00,39,R,ugm-3,40,R,ugm-3,99,R,ugm-3
19-01-1992,13:00,40,R,ugm-3,38,R,ugm-3,99,R,ugm-3
19-01-1992,14:00,29,R,ugm-3,36,R,ugm-3,80,R,ugm-3
19-01-1992,15:00,31,R,ugm-3,38,R,ugm-3,86,R,ugm-3
19-01-1992,16:00,36,R,ugm-3,42,R,ugm-3,97,R,ugm-3
19-01-1992,17:00,39,R,ugm-3,40,R,ugm-3,99,R,ugm-3
19-01-1992,18:00,44,R,ugm-3,44,R,ugm-3,111,R,ugm-3
19-01-1992,19:00,48,R,ugm-3,44,R,ugm-3,117,R,ugm-3
19-01-1992,20:00,51,R,ugm-3,42,R,ugm-3,120,R,ugm-3
19-01-1992,21:00,45,R,ugm-3,42,R,ugm-3,111,R,ugm-3
19-01-1992,22:00,34,R,ugm-3,38,R,ugm-3,90,R,ugm-3
19-01-1992,23:00,26,R,ugm-3,38,R,ugm-3,78,R,ugm-3
19-01-1992,24:00,19,R,ugm-3,42,R,ugm-3,71,R,ugm-3
20-01-1992,01:00,16,R,ugm-3,42,R,ugm-3,67,R,ugm-3
20-01-1992,02:00,15,R,ugm-3,48,R,ugm-3,71,R,ugm-3
20-01-1992,03:00,1,R,ugm-3,29,R,ugm-3,31,R,ugm-3
20-01-1992,04:00,3,R,ugm-3,25,R,ugm-3,29,R,ugm-3
20-01-1992,05:00,3,R,ugm-3,21,R,ugm-3,25,R,ugm-3
20-01-1992,06:00,1,R,ugm-3,21,R,ugm-3,23,R,ugm-3
20-01-1992,07:00,5,R,ugm-3,32,R,ugm-3,40,R,ugm-3
20-01-1992,08:00,8,R,ugm-3,38,R,ugm-3,50,R,ugm-3
20-01-1992,09:00,11,R,ugm-3,48,R,ugm-3,65,R,ugm-3
20-01-1992,10:00,19,R,ugm-3,50,R,ugm-3,78,R,ugm-3
20-01-1992,11:00,19,R,ugm-3,52,R,ugm-3,80,R,ugm-3